This demonstration page uses our WeatherBlox Daily Observations layout. Learn more.

Left ArrowRight Arrow

38.20091, -84.87328

Hourly Observations for July 22, 2022

Temp ( °F °C ) Dew Point ( °F °C ) Humidity (%) Winds ( mph kmh ) Pressure ( in mb ) Visibility ( mi km ) Precip ( " mm )
12:53 am 00:53 Clear 71 21.7 67 19.4 87 87 Calm 29.90 1013 10 16 0.00 0.00
1:53 am 01:53 Clear 70 21.1 67 19.4 90 90 Calm 29.91 1013 10 16 0.00 0.00
2:53 am 02:53 Clear 69 20.6 67 19.4 93 93 WSW 3 6 29.92 1013 10 16 0.00 0.00
3:53 am 03:53 Clear 69 20.6 66 18.9 90 90 Calm 29.93 1014 10 16 0.00 0.00
4:53 am 04:53 Clear 67 19.4 65 18.3 93 93 Calm 29.94 1014 10 16 0.00 0.00
5:53 am 05:53 Clear 67 19.4 64 17.8 91 91 Calm 29.95 1014 10 16 0.00 0.00
6:53 am 06:53 Sunny 68 20 65 18.3 90 90 SW 3 6 29.95 1014 9 14 0.00 0.00
7:53 am 07:53 Sunny 72 22.2 66 18.9 82 82 SSW 3 6 29.97 1015 10 16 0.00 0.00
8:53 am 08:53 Sunny 75 23.9 68 20 79 79 SW 7 11 29.99 1016 10 16 0.00 0.00
9:53 am 09:53 Sunny 80 26.7 70 21.1 71 71 SW 6 9 30.00 1016 10 16 0.00 0.00
10:53 am 10:53 Sunny 84 28.9 69 20.6 61 61 WSW 8 13 30.00 1016 10 16 0.00 0.00
11:53 am 11:53 Sunny 87 30.6 69 20.6 55 55 WSW 9 15 30.01 1016 10 16 0.00 0.00
12:53 pm 12:53 Sunny 88 31.1 70 21.1 55 55 SW 8 13 30.02 1017 10 16 0.00 0.00
1:53 pm 13:53 Sunny 90 32.2 69 20.6 50 50 WSW 9 15 30.01 1016 10 16 0.00 0.00
2:53 pm 14:53 Sunny 91 32.8 70 21.1 50 50 SSW 6 9 29.98 1015 10 16 0.00 0.00
3:53 pm 15:53 Sunny 92 33.3 69 20.6 47 47 SW 9 15 29.98 1015 10 16 0.00 0.00
4:53 pm 16:53 Sunny 91 32.8 69 20.6 49 49 SW 7 11 29.99 1016 10 16 0.00 0.00
5:53 pm 17:53 Sunny 91 32.8 69 20.6 49 49 SW 7 11 29.99 1016 10 16 0.00 0.00
6:53 pm 18:53 Sunny 91 32.8 70 21.1 50 50 SW 8 13 29.98 1015 10 16 0.00 0.00
7:53 pm 19:53 Sunny 88 31.1 71 21.7 57 57 SSW 7 11 29.98 1015 10 16 0.00 0.00
8:53 pm 20:53 Sunny 84 28.9 72 22.2 67 67 SSW 3 6 29.98 1015 10 16 0.00 0.00
9:53 pm 21:53 Clear 81 27.2 71 21.7 72 72 WSW 3 6 30.00 1016 10 16 0.00 0.00
10:53 pm 22:53 Clear 78 25.6 71 21.7 79 79 SSW 5 7 30.03 1017 10 16 0.00 0.00
11:53 pm 23:53 Clear 79 26.1 70 21.1 74 74 Calm 30.03 1017 10 16 0.00 0.00

Powered by AerisWeather